Saint Bonnet de Bellac- Haute Vienne - France
Donnes mto: dimanche, 21/10/2012
Date Horaire Temp. E. Hum. E. P.atmo. Pluie Vent Direction Direction Ensoleilleme Solaire P. de rose Temp au vent Rafales
21/10/2012 08:20 14,1 C 94 % 1012,2 hPa 0,0 mm 3,6 km/h (1 Bft) N-NE 22 0 min 0 W/m 13,1 C 14,1 C 6,5 km/h (2 Bft)
21/10/2012 08:30 14,1 C 94 % 1012,0 hPa 0,0 mm 3,2 km/h (1 Bft) NE 45 0 min 0 W/m 13,1 C 14,1 C 3,2 km/h (1 Bft)
21/10/2012 08:40 14,1 C 94 % 1011,8 hPa 0,0 mm 2,9 km/h (1 Bft) E-NE 67 0 min 0 W/m 13,1 C 14,1 C 4,3 km/h (1 Bft)
21/10/2012 08:50 14,2 C 94 % 1011,7 hPa 0,0 mm 3,2 km/h (1 Bft) N-NE 22 0 min 0 W/m 13,2 C 14,2 C 8,3 km/h (2 Bft)
21/10/2012 09:00 14,2 C 94 % 1011,7 hPa 0,0 mm 3,2 km/h (1 Bft) N-NE 22 0 min 0 W/m 13,2 C 14,2 C 3,2 km/h (1 Bft)
21/10/2012 09:10 14,2 C 94 % 1011,7 hPa 0,0 mm 0,4 km/h (0 Bft) NE 45 0 min 0 W/m 13,2 C 14,2 C 0,4 km/h (0 Bft)
21/10/2012 09:20 14,3 C 94 % 1011,5 hPa 0,0 mm 1,1 km/h (1 Bft) N-NE 22 0 min 0 W/m 13,3 C 14,3 C 4,0 km/h (1 Bft)
21/10/2012 09:30 14,3 C 94 % 1011,6 hPa 0,0 mm 3,2 km/h (1 Bft) NE 45 0 min 0 W/m 13,3 C 14,3 C 6,5 km/h (2 Bft)
21/10/2012 09:40 14,3 C 94 % 1011,7 hPa 0,0 mm 1,1 km/h (1 Bft) NE 45 0 min 0 W/m 13,3 C 14,3 C 3,6 km/h (1 Bft)
21/10/2012 09:50 14,3 C 94 % 1011,5 hPa 0,0 mm 1,4 km/h (1 Bft) NE 45 0 min 0 W/m 13,3 C 14,3 C 2,9 km/h (1 Bft)
21/10/2012 10:00 14,3 C 94 % 1011,6 hPa 0,0 mm 0,4 km/h (0 Bft) NE 45 0 min 0 W/m 13,3 C 14,3 C 4,0 km/h (1 Bft)
21/10/2012 10:10 14,3 C 94 % 1011,5 hPa 0,0 mm 4,0 km/h (1 Bft) N-NE 22 0 min 0 W/m 13,3 C 14,3 C 4,3 km/h (1 Bft)
21/10/2012 10:20 14,3 C 94 % 1011,5 hPa 0,0 mm 1,1 km/h (1 Bft) N-NE 22 0 min 0 W/m 13,3 C 14,3 C 4,3 km/h (1 Bft)
21/10/2012 10:30 14,4 C 94 % 1011,3 hPa 0,0 mm 1,1 km/h (1 Bft) N-NE 22 0 min 0 W/m 13,4 C 14,4 C 3,6 km/h (1 Bft)
21/10/2012 10:40 14,4 C 94 % 1011,5 hPa 0,0 mm 0,0 km/h (0 Bft) N-NE 22 0 min 0 W/m 13,4 C 14,4 C 0,0 km/h (0 Bft)
21/10/2012 10:50 14,4 C 94 % 1011,5 hPa 0,0 mm 1,4 km/h (1 Bft) N-NE 22 0 min 0 W/m 13,4 C 14,4 C 6,5 km/h (2 Bft)
21/10/2012 11:00 14,4 C 94 % 1011,4 hPa 0,0 mm 0,4 km/h (0 Bft) N-NE 22 0 min 0 W/m 13,4 C 14,4 C 3,2 km/h (1 Bft)
21/10/2012 11:10 14,4 C 94 % 1011,4 hPa 0,0 mm 0,0 km/h (0 Bft) N-NE 22 0 min 0 W/m 13,4 C 14,4 C 3,2 km/h (1 Bft)
21/10/2012 11:20 14,4 C 94 % 1011,3 hPa 0,0 mm 0,4 km/h (0 Bft) N-NE 22 0 min 0 W/m 13,4 C 14,4 C 3,6 km/h (1 Bft)
21/10/2012 11:30 14,5 C 94 % 1011,2 hPa 0,0 mm 0,7 km/h (0 Bft) N-NE 22 0 min 0 W/m 13,5 C 14,5 C 4,0 km/h (1 Bft)
21/10/2012 11:40 14,5 C 94 % 1011,3 hPa 0,0 mm 0,0 km/h (0 Bft) N-NE 22 0 min 0 W/m 13,5 C 14,5 C 0,0 km/h (0 Bft)
21/10/2012 11:50 14,5 C 94 % 1011,2 hPa 0,0 mm 0,0 km/h (0 Bft) N-NE 22 0 min 0 W/m 13,5 C 14,5 C 0,0 km/h (0 Bft)
21/10/2012 12:00 14,5 C 94 % 1011,2 hPa 0,0 mm 0,0 km/h (0 Bft) N-NE 22 0 min 0 W/m 13,5 C 14,5 C 0,0 km/h (0 Bft)
21/10/2012 12:10 14,6 C 94 % 1011,1 hPa 0,0 mm 1,1 km/h (1 Bft) N-NE 22 0 min 0 W/m 13,6 C 14,6 C 3,6 km/h (1 Bft)
21/10/2012 12:20 14,6 C 94 % 1011,0 hPa 0,0 mm 0,0 km/h (0 Bft) N-NE 22 0 min 0 W/m 13,6 C 14,6 C 0,0 km/h (0 Bft)
21/10/2012 12:30 14,6 C 94 % 1011,0 hPa 0,0 mm 0,7 km/h (0 Bft) N-NE 22 0 min 0 W/m 13,6 C 14,6 C 0,7 km/h (0 Bft)
21/10/2012 12:40 14,6 C 94 % 1011,1 hPa 0,0 mm 0,0 km/h (0 Bft) N 360 0 min 0 W/m 13,6 C 14,6 C 0,0 km/h (0 Bft)
21/10/2012 12:50 14,6 C 94 % 1011,0 hPa 0,0 mm 0,4 km/h (0 Bft) N-NE 22 0 min 0 W/m 13,6 C 14,6 C 3,2 km/h (1 Bft)
21/10/2012 13:00 14,6 C 94 % 1011,1 hPa 0,0 mm 0,7 km/h (0 Bft) N-NE 22 0 min 0 W/m 13,6 C 14,6 C 0,7 km/h (0 Bft)
21/10/2012 13:10 14,6 C 94 % 1011,0 hPa 0,0 mm 1,4 km/h (1 Bft) NE 45 0 min 0 W/m 13,6 C 14,6 C 4,0 km/h (1 Bft)
21/10/2012 13:20 14,6 C 94 % 1011,0 hPa 0,0 mm 2,5 km/h (1 Bft) N 360 0 min 0 W/m 13,6 C 14,6 C 3,2 km/h (1 Bft)
21/10/2012 13:30 14,6 C 94 % 1010,9 hPa 0,0 mm 1,1 km/h (1 Bft) N-NE 22 0 min 0 W/m 13,6 C 14,6 C 2,9 km/h (1 Bft)
21/10/2012 13:40 14,6 C 94 % 1010,9 hPa 0,0 mm 2,5 km/h (1 Bft) NE 45 0 min 0 W/m 13,6 C 14,6 C 8,6 km/h (2 Bft)
21/10/2012 13:50 14,6 C 94 % 1010,9 hPa 0,0 mm 0,4 km/h (0 Bft) N-NE 22 0 min 0 W/m 13,6 C 14,6 C 0,4 km/h (0 Bft)
21/10/2012 14:00 14,6 C 94 % 1010,9 hPa 0,0 mm 0,7 km/h (0 Bft) N-NE 22 0 min 0 W/m 13,6 C 14,6 C 2,9 km/h (1 Bft)
21/10/2012 14:10 14,6 C 94 % 1011,0 hPa 0,0 mm 0,4 km/h (0 Bft) N-NE 22 0 min 0 W/m 13,6 C 14,6 C 0,4 km/h (0 Bft)
21/10/2012 14:20 14,6 C 94 % 1010,8 hPa 0,0 mm 0,7 km/h (0 Bft) N-NE 22 0 min 0 W/m 13,6 C 14,6 C 0,7 km/h (0 Bft)
21/10/2012 14:30 14,6 C 94 % 1010,8 hPa 0,0 mm 0,0 km/h (0 Bft) N-NE 22 0 min 0 W/m 13,6 C 14,6 C 3,2 km/h (1 Bft)
21/10/2012 14:40 14,8 C 94 % 1010,7 hPa 0,0 mm 0,7 km/h (0 Bft) N-NE 22 0 min 0 W/m 13,8 C 14,8 C 4,0 km/h (1 Bft)
21/10/2012 14:50 14,7 C 94 % 1010,7 hPa 0,0 mm 0,0 km/h (0 Bft) N-NE 22 0 min 0 W/m 13,7 C 14,7 C 1,8 km/h (1 Bft)
21/10/2012 15:00 14,8 C 94 % 1010,7 hPa 0,0 mm 0,7 km/h (0 Bft) N-NE 22 0 min 0 W/m 13,8 C 14,8 C 3,2 km/h (1 Bft)
21/10/2012 15:10 14,8 C 94 % 1010,5 hPa 0,0 mm 1,8 km/h (1 Bft) N-NE 22 0 min 0 W/m 13,8 C 14,8 C 4,3 km/h (1 Bft)
21/10/2012 15:20 14,8 C 94 % 1010,5 hPa 0,0 mm 0,7 km/h (0 Bft) N-NE 22 0 min 0 W/m 13,8 C 14,8 C 3,6 km/h (1 Bft)
21/10/2012 15:30 14,8 C 94 % 1010,4 hPa 0,0 mm 0,0 km/h (0 Bft) N 360 0 min 0 W/m 13,8 C 14,8 C 0,0 km/h (0 Bft)
21/10/2012 15:40 14,8 C 94 % 1010,4 hPa 0,0 mm 0,0 km/h (0 Bft) N 360 0 min 0 W/m 13,8 C 14,8 C 0,0 km/h (0 Bft)
21/10/2012 15:50 14,8 C 94 % 1010,3 hPa 0,0 mm 0,4 km/h (0 Bft) N 360 0 min 0 W/m 13,8 C 14,8 C 0,4 km/h (0 Bft)
21/10/2012 16:00 14,8 C 94 % 1010,3 hPa 0,0 mm 1,4 km/h (1 Bft) N 360 0 min 0 W/m 13,8 C 14,8 C 6,8 km/h (2 Bft)
21/10/2012 16:10 14,8 C 95 % 1010,3 hPa 0,0 mm 0,0 km/h (0 Bft) N 360 0 min 0 W/m 14,0 C 14,8 C 3,2 km/h (1 Bft)
21/10/2012 16:20 14,8 C 94 % 1010,3 hPa 0,0 mm 0,0 km/h (0 Bft) N 360 0 min 0 W/m 13,8 C 14,8 C 0,0 km/h (0 Bft)
21/10/2012 16:30 14,8 C 94 % 1010,3 hPa 0,0 mm 0,0 km/h (0 Bft) N 360 0 min 0 W/m 13,8 C 14,8 C 0,0 km/h (0 Bft)
21/10/2012 16:40 14,8 C 94 % 1010,3 hPa 0,0 mm 0,0 km/h (0 Bft) N 360 0 min 0 W/m 13,8 C 14,8 C 0,0 km/h (0 Bft)
21/10/2012 16:50 14,8 C 95 % 1010,2 hPa 0,0 mm 0,0 km/h (0 Bft) N 360 0 min 0 W/m 14,0 C 14,8 C 0,0 km/h (0 Bft)
21/10/2012 17:00 14,8 C 95 % 1010,3 hPa 0,0 mm 0,0 km/h (0 Bft) N 360 0 min 0 W/m 14,0 C 14,8 C 0,0 km/h (0 Bft)
21/10/2012 17:10 14,8 C 95 % 1010,2 hPa 0,0 mm 0,0 km/h (0 Bft) N 360 0 min 0 W/m 14,0 C 14,8 C 0,0 km/h (0 Bft)
21/10/2012 17:20 14,8 C 95 % 1010,2 hPa 0,0 mm 0,0 km/h (0 Bft) N 360 0 min 0 W/m 14,0 C 14,8 C 0,0 km/h (0 Bft)
21/10/2012 17:30 14,8 C 95 % 1010,1 hPa 0,0 mm 0,0 km/h (0 Bft) N 360 0 min 0 W/m 14,0 C 14,8 C 0,0 km/h (0 Bft)
21/10/2012 17:40 14,8 C 95 % 1010,1 hPa 0,0 mm 0,0 km/h (0 Bft) N 360 0 min 0 W/m 14,0 C 14,8 C 0,0 km/h (0 Bft)
21/10/2012 17:50 14,8 C 95 % 1010,3 hPa 0,0 mm 0,0 km/h (0 Bft) N 360 0 min 0 W/m 14,0 C 14,8 C 0,0 km/h (0 Bft)
21/10/2012 18:00 14,8 C 95 % 1010,2 hPa 0,0 mm 0,0 km/h (0 Bft) N 360 0 min 0 W/m 14,0 C 14,8 C 0,0 km/h (0 Bft)
21/10/2012 18:10 14,8 C 95 % 1010,2 hPa 0,0 mm 0,0 km/h (0 Bft) N 360 0 min 0 W/m 14,0 C 14,8 C 0,0 km/h (0 Bft)
21/10/2012 18:20 14,8 C 95 % 1010,2 hPa 0,0 mm 0,0 km/h (0 Bft) N 360 0 min 0 W/m 14,0 C 14,8 C 0,0 km/h (0 Bft)
21/10/2012 18:30 14,8 C 95 % 1010,2 hPa 0,0 mm 0,0 km/h (0 Bft) N 360 0 min 0 W/m 14,0 C 14,8 C 0,0 km/h (0 Bft)
21/10/2012 18:40 14,8 C 95 % 1010,0 hPa 0,0 mm 0,0 km/h (0 Bft) N 360 0 min 0 W/m 14,0 C 14,8 C 0,0 km/h (0 Bft)
21/10/2012 18:50 14,8 C 95 % 1009,9 hPa 0,0 mm 0,0 km/h (0 Bft) N 360 0 min 0 W/m 14,0 C 14,8 C 0,0 km/h (0 Bft)
21/10/2012 19:00 14,8 C 95 % 1010,0 hPa 0,0 mm 0,0 km/h (0 Bft) N 360 0 min 0 W/m 14,0 C 14,8 C 0,0 km/h (0 Bft)
21/10/2012 19:10 14,8 C 95 % 1009,8 hPa 0,0 mm 0,0 km/h (0 Bft) N 360 0 min 0 W/m 14,0 C 14,8 C 0,0 km/h (0 Bft)
21/10/2012 19:20 14,7 C 95 % 1009,9 hPa 0,0 mm 0,0 km/h (0 Bft) N 360 0 min 0 W/m 13,9 C 14,7 C 0,0 km/h (0 Bft)
21/10/2012 19:30 14,7 C 95 % 1009,8 hPa 0,0 mm 0,0 km/h (0 Bft) N 360 0 min 0 W/m 13,9 C 14,7 C 0,0 km/h (0 Bft)
21/10/2012 19:40 14,6 C 95 % 1009,6 hPa 0,0 mm 0,0 km/h (0 Bft) N 360 0 min 0 W/m 13,8 C 14,6 C 0,0 km/h (0 Bft)
21/10/2012 19:50 14,7 C 95 % 1009,6 hPa 0,0 mm 0,0 km/h (0 Bft) N 360 0 min 0 W/m 13,9 C 14,7 C 0,0 km/h (0 Bft)
21/10/2012 20:00 14,7 C 95 % 1009,6 hPa 0,0 mm 0,0 km/h (0 Bft) N 360 0 min 0 W/m 13,9 C 14,7 C 0,0 km/h (0 Bft)
21/10/2012 20:10 14,7 C 95 % 1009,6 hPa 0,0 mm 0,0 km/h (0 Bft) N 360 0 min 0 W/m 13,9 C 14,7 C 0,0 km/h (0 Bft)
21/10/2012 20:20 14,8 C 95 % 1009,7 hPa 0,0 mm 1,1 km/h (1 Bft) E-NE 67 0 min 0 W/m 14,0 C 14,8 C 4,3 km/h (1 Bft)
21/10/2012 20:30 15,0 C 95 % 1009,7 hPa 0,0 mm 0,0 km/h (0 Bft) E-NE 67 0 min 0 W/m 14,2 C 15,0 C 0,0 km/h (0 Bft)
21/10/2012 20:40 15,2 C 95 % 1009,6 hPa 0,0 mm 0,0 km/h (0 Bft) E-NE 67 0 min 0 W/m 14,4 C 15,2 C 0,0 km/h (0 Bft)
21/10/2012 20:50 15,3 C 95 % 1009,7 hPa 0,0 mm 0,0 km/h (0 Bft) E-NE 67 0 min 0 W/m 14,5 C 15,3 C 0,0 km/h (0 Bft)
21/10/2012 21:00 15,4 C 95 % 1009,7 hPa 0,0 mm 0,0 km/h (0 Bft) E 90 0 min 0 W/m 14,6 C 15,4 C 0,0 km/h (0 Bft)
21/10/2012 21:10 15,7 C 95 % 1009,8 hPa 0,0 mm 0,0 km/h (0 Bft) E 90 0 min 0 W/m 14,9 C 15,7 C 0,0 km/h (0 Bft)
21/10/2012 21:20 15,8 C 95 % 1009,8 hPa 0,0 mm 1,1 km/h (1 Bft) E 90 0 min 0 W/m 15,0 C 15,8 C 4,0 km/h (1 Bft)
21/10/2012 21:30 15,9 C 96 % 1009,8 hPa 0,0 mm 0,0 km/h (0 Bft) E 90 0 min 0 W/m 15,3 C 15,9 C 0,0 km/h (0 Bft)
21/10/2012 21:40 15,9 C 96 % 1010,0 hPa 0,0 mm 1,4 km/h (1 Bft) E 90 0 min 0 W/m 15,3 C 15,9 C 4,3 km/h (1 Bft)
21/10/2012 21:50 16,1 C 96 % 1010,3 hPa 0,0 mm 1,4 km/h (1 Bft) SE 135 0 min 0 W/m 15,5 C 16,1 C 3,6 km/h (1 Bft)
21/10/2012 22:00 16,4 C 95 % 1010,2 hPa 0,0 mm 2,2 km/h (1 Bft) SE 135 0 min 0 W/m 15,6 C 16,4 C 4,3 km/h (1 Bft)
21/10/2012 22:10 16,6 C 95 % 1010,1 hPa 0,0 mm 1,8 km/h (1 Bft) S-SE 157 0 min 0 W/m 15,8 C 16,6 C 4,0 km/h (1 Bft)
21/10/2012 22:20 16,8 C 95 % 1010,2 hPa 0,0 mm 0,0 km/h (0 Bft) SE 135 0 min 0 W/m 16,0 C 16,8 C 0,0 km/h (0 Bft)
21/10/2012 22:30 16,8 C 95 % 1010,2 hPa 0,0 mm 0,0 km/h (0 Bft) SE 135 0 min 0 W/m 16,0 C 16,8 C 0,0 km/h (0 Bft)
21/10/2012 22:40 16,8 C 95 % 1010,1 hPa 0,0 mm 0,0 km/h (0 Bft) SE 135 0 min 0 W/m 16,0 C 16,8 C 0,0 km/h (0 Bft)
21/10/2012 22:50 16,8 C 95 % 1010,0 hPa 0,0 mm 0,0 km/h (0 Bft) SE 135 0 min 0 W/m 16,0 C 16,8 C 0,0 km/h (0 Bft)
21/10/2012 23:00 16,6 C 94 % 1010,1 hPa 0,0 mm 0,0 km/h (0 Bft) SE 135 0 min 0 W/m 15,6 C 16,6 C 0,0 km/h (0 Bft)
21/10/2012 23:10 16,3 C 94 % 1010,2 hPa 0,0 mm 0,0 km/h (0 Bft) SE 135 0 min 0 W/m 15,3 C 16,3 C 0,0 km/h (0 Bft)
21/10/2012 23:20 16,1 C 94 % 1010,3 hPa 0,0 mm 0,0 km/h (0 Bft) SE 135 0 min 0 W/m 15,1 C 16,1 C 0,0 km/h (0 Bft)
21/10/2012 23:30 16,0 C 95 % 1010,4 hPa 0,0 mm 0,4 km/h (0 Bft) SE 135 0 min 0 W/m 15,2 C 16,0 C 3,6 km/h (1 Bft)
21/10/2012 23:40 15,9 C 95 % 1010,5 hPa 0,0 mm 0,0 km/h (0 Bft) SE 135 0 min 0 W/m 15,1 C 15,9 C 0,0 km/h (0 Bft)
21/10/2012 23:50 15,9 C 95 % 1010,8 hPa 0,0 mm 0,0 km/h (0 Bft) SE 135 0 min 0 W/m 15,1 C 15,9 C 0,0 km/h (0 Bft)
_ Min-Heure 08:40 23:20 20:40 - 23:50 - - - - 08:40 08:40 23:50
Minimum _ 14,1 C 94 % 1009,6 hPa - 0,0 km/h (0 Bft) - - - - 13,1 C 14,1 C 0,0 km/h (0 Bft)
_ Max-Heure 22:50 21:50 08:20 23:50 10:10 - - 23:50 23:50 22:50 22:50 13:40
Maximum _ 16,8 C 96 % 1012,2 hPa 0,0 mm 4,0 km/h
N-NE (1 Bft)
- - 0 min 0 W/m 16,0 C 16,8 C 8,6 km/h
NE (2 Bft)
Moyenne _ 14,8 C 94 % 1010,8 hPa #0,0 mm 1,0 km/h (0 Bft) N-NE - #0 min. 0 W/m 13,9 C 14,8 C 2,3 km/h (1 Bft)
Saint Bonnet de Bellac- Haute Vienne - France